Location: Dackenheim
(49.5215°N, 8.1854°E)
Time: 02:34:11
(UTC+00:00)

UWE-3 - Pass Details

Date: 18 March 2026
Orbit: 543 x 612 km, 97.9° (Epoch: 12 April)

Event Time Altitude Azimuth Distance (km) Brightness Sun altitude
Rises 01:03:16 0° 30° (NNE) 2,881 ? -38.0°
Reaches altitude 10° 01:06:26 10° 55° (NE) 1,960 ? -37.7°
Enters shadow 01:06:41 11° 58° (ENE) 1,909 ? -37.7°
